FW9167 Weather Reports


Display with metric or nautical units.
time (UTC)temp
F
wind
direction
speed
MPH
gust
MPH
rain 1hr
in
rain 24hr
in
rain mn
in
humidity
%
barometer
mb
20260901224604 75 172 0.0 4.0 0.00 0.00 0.00 50 1010.6
20260901223103 75 138 1.0 6.0 0.00 0.00 0.00 50 1010.8
20260901221606 73 82 2.0 4.0 0.00 0.00 0.00 52 1011.1
20260901214603 70 132 0.0 3.0 0.00 0.00 0.00 57 1011.2
20260901213103 66 194 0.0 4.0 0.00 0.00 0.00 67 1011.7
20260901211603 66 194 0.0 4.0 0.00 0.00 0.00 67 1011.7
20260901210106 63 5 0.0 3.0 0.00 0.00 0.00 65 1011.7
20260901204603 62 248 3.0 3.0 0.00 0.00 0.00 66 1012.8
20260901203103 62 260 0.0 3.0 0.00 0.00 0.00 62 1013.0
20260901201603 63 248 0.0 3.0 0.00 0.00 0.00 61 1013.3
20260901200107 66 352 0.0 1.0 0.00 0.00 0.00 48 1013.5
20260901193104 66 208 0.0 1.0 0.00 0.00 0.00 49 1013.4
20260901191602 65 203 0.0 4.0 0.00 0.00 0.00 51 1013.3
20260901184603 65 200 0.0 1.0 0.00 0.00 0.00 65 1012.9
20260901183104 65 31 0.0 1.0 0.00 0.00 0.00 59 1013.1
20260901181609 65 13 1.0 4.0 0.00 0.00 0.00 55 1013.2
20260901174604 64 315 0.0 4.0 0.00 0.00 0.00 53 1013.2
20260901173102 62 349 1.0 6.0 0.00 0.00 0.00 53 1012.9
20260901171602 62 107 0.0 2.0 0.00 0.00 0.00 58 1012.6
20260901164602 64 134 1.0 3.0 0.00 0.00 0.00 54 1012.4
20260901163103 65 13 0.0 3.0 0.00 0.00 0.00 45 1012.1
20260901161603 67 130 0.0 6.0 0.00 0.00 0.00 43 1012.3
20260901154602 65 306 1.0 1.0 0.00 0.00 0.00 44 1012.4
20260901153106 64 23 0.0 3.0 0.00 0.00 0.00 49 1012.2
20260901151603 63 19 0.0 0.0 0.00 0.00 0.00 44 1011.9
20260901144605 61 252 0.0 0.0 0.00 0.00 0.00 50 1011.2
20260901143102 58 327 0.0 1.0 0.00 0.00 0.00 50 1011.0
20260901140106 53 8 0.0 1.0 0.00 0.00 0.00 61 1010.7
20260901134604 53 19 0.0 1.0 0.00 0.00 0.00 55 1010.5
20260901133104 53 333 0.0 1.0 0.00 0.00 0.00 54 1010.3
20260901131605 53 340 0.0 1.0 0.00 0.00 0.00 53 1010.2
20260901124604 52 19 0.0 1.0 0.00 0.00 0.00 56 1010.1
20260901123102 53 330 2.0 2.0 0.00 0.00 0.00 53 1010.1
20260901121603 52 346 0.0 0.0 0.00 0.00 0.00 53 1010.4
20260901114605 53 346 0.0 1.0 0.00 0.00 0.00 49 1010.3
20260901113104 54 8 0.0 2.0 0.00 0.00 0.00 51 1010.1
20260901111603 53 15 0.0 1.0 0.00 0.00 0.00 53 1010.1
20260901110105 53 326 0.0 3.0 0.00 0.00 0.00 55 1010.1
20260901104605 52 338 0.0 1.0 0.00 0.00 0.00 56 1010.3
20260901101603 56 347 0.0 1.0 0.00 0.00 0.00 51 1010.4
20260901100106 56 296 0.0 1.0 0.00 0.00 0.00 49 1010.4
20260901094602 57 11 0.0 0.0 0.00 0.00 0.00 50 1010.4
20260901093102 57 18 0.0 3.0 0.00 0.00 0.00 50 1010.4
20260901091603 59 357 0.0 0.0 0.00 0.00 0.00 44 1010.5
20260901090108 59 357 0.0 1.0 0.00 0.00 0.00 45 1010.5
20260901084603 57 333 0.0 2.0 0.00 0.00 0.00 47 1010.7
20260901083101 58 339 1.0 1.0 0.00 0.00 0.00 46 1010.9
20260901081607 58 308 0.0 0.0 0.00 0.00 0.00 45 1010.8
20260901080104 60 347 0.0 1.0 0.00 0.00 0.00 41 1010.7
20260901074603 62 280 0.0 4.0 0.00 0.00 0.00 40 1010.6
20260901073103 60 274 0.0 1.0 0.00 0.00 0.00 39 1010.5
20260901071605 58 330 0.0 2.0 0.00 0.00 0.00 44 1010.7
20260901070104 59 345 1.0 3.0 0.00 0.00 0.00 45 1010.8
20260901064603 58 342 0.0 2.0 0.00 0.00 0.00 44 1010.9
20260901063108 59 1 0.0 1.0 0.00 0.00 0.00 44 1010.9
20260901061607 62 8 0.0 3.0 0.00 0.00 0.00 37 1011.0
20260901060103 63 8 0.0 1.0 0.00 0.00 0.00 37 1011.0
20260901054603 64 291 1.0 3.0 0.00 0.00 0.00 34 1011.0
20260901053102 66 27 0.0 2.0 0.00 0.00 0.00 32 1011.0
20260901051602 67 20 1.0 4.0 0.00 0.00 0.00 29 1011.0
20260901044603 67 13 0.0 1.0 0.00 0.00 0.00 29 1011.3
20260901043103 69 43 0.0 3.0 0.00 0.00 0.00 27 1011.3
20260901041604 69 3 1.0 6.0 0.00 0.00 0.00 26 1011.2
20260901034602 69 327 2.0 5.0 0.00 0.00 0.00 28 1011.3
20260901033103 69 356 0.0 4.0 0.00 0.00 0.00 28 1011.3
20260901031604 70 360 2.0 6.0 0.00 0.00 0.00 27 1011.2
20260901030105 70 328 5.0 7.0 0.00 0.00 0.00 27 1011.2
20260901024602 69 316 2.0 5.0 0.00 0.00 0.00 29 1011.3
20260901023104 69 316 3.0 5.0 0.00 0.00 0.00 28 1011.2
20260901021604 70 316 4.0 6.0 0.00 0.00 0.00 28 1011.2
20260901014601 76 295 0.0 2.0 0.00 0.00 0.00 30 1011.3
20260901013106 76 262 1.0 3.0 0.00 0.00 0.00 30 1011.5
20260901011603 81 248 2.0 3.0 0.00 0.00 0.00 25 1011.5
20260901004602 87 168 0.0 1.0 0.00 0.00 0.00 16 1011.5
20260901003102 88 91 0.0 3.0 0.00 0.00 0.00 14 1011.6
20260901001602 88 47 0.0 2.0 0.00 0.00 0.00 15 1011.9
20260831234603 87 117 0.0 4.0 0.00 0.00 0.00 15 1012.2
20260831231602 87 113 3.0 4.0 0.00 0.00 0.00 14 1012.7